This is the latest recevied weather packets stored in our database for station/object K0QED. If no packets are shown the sender has not sent any weather packets the latest 1 day(s).
| Time | Temp. | Humidity | Pressure | Rain* | Wind** | Luminosity | Snow |
|---|---|---|---|---|---|---|---|
| 1778001460 | 1.11° C | 98% | 1015.4 hPa | 3.05 mm | 0 m/s | 51 W/m² | - |
| 1778001158 | 0.56° C | 98% | 1015.1 hPa | 1.27 mm | 0 m/s | 50 W/m² | - |
| 1778000854 | 0.56° C | 98% | 1015.1 hPa | 1.78 mm | 0 m/s | 48 W/m² | - |
| 1778000551 | 0.56° C | 98% | 1015.1 hPa | 1.78 mm | 0 m/s | 44 W/m² | - |
| 1778000247 | 0.56° C | 98% | 1015.2 hPa | 1.27 mm | 0 m/s | 46 W/m² | - |
| 1777999943 | 0.56° C | 98% | 1015 hPa | 1.27 mm | 0 m/s | 45 W/m² | - |
| 1777999638 | 0.56° C | 97% | 1015.2 hPa | 0 mm | 0 m/s | 45 W/m² | - |
| 1777999336 | 0.56° C | 97% | 1015.2 hPa | 1.78 mm | 0 m/s | 45 W/m² | - |
| 1777999034 | 0.56° C | 97% | 1015.1 hPa | 1.78 mm | 0 m/s | 48 W/m² | - |
| 1777998732 | 0.56° C | 97% | 1015.2 hPa | 1.27 mm | 0 m/s | 43 W/m² | - |
| 1777998429 | 0.56° C | 97% | 1015.4 hPa | 3.05 mm | 0 m/s | 47 W/m² | - |
| 1777998126 | 0.56° C | 97% | 1015.1 hPa | 1.78 mm | 0 m/s | 46 W/m² | - |
| 1777997823 | 0.56° C | 97% | 1015.4 hPa | 1.78 mm | 0 m/s | 41 W/m² | - |
| 1777997521 | 0.56° C | 97% | 1015.4 hPa | 1.78 mm | 0 m/s | 40 W/m² | - |
| 1777997218 | 0.56° C | 97% | 1015.5 hPa | 1.27 mm | 0 m/s | 30 W/m² | - |
| 1777996915 | 1.11° C | 97% | 1015.2 hPa | 3.05 mm | 0 m/s | 31 W/m² | - |
| 1777996611 | 1.11° C | 97% | 1015.2 hPa | 3.05 mm | 0 m/s | 31 W/m² | - |
| 1777996308 | 1.11° C | 97% | 1015.5 hPa | 1.27 mm | 0 m/s | 27 W/m² | - |
| 1777996004 | 1.11° C | 97% | 1015.5 hPa | 3.05 mm | 0 m/s | 27 W/m² | - |
| 1777995700 | 0.56° C | 97% | 1015.6 hPa | 3.05 mm | 0 m/s | 29 W/m² | - |
| 1777995397 | 0.56° C | 97% | 1015.2 hPa | 1.27 mm | 0 m/s | 21 W/m² | - |
| 1777995095 | 1.11° C | 96% | 1015.6 hPa | 0 mm | 0 m/s | 21 W/m² | - |
| 1777994791 | 1.11° C | 96% | 1015.4 hPa | 0 mm | 0 m/s | 22 W/m² | - |
| 1777994487 | 1.11° C | 96% | 1015.6 hPa | 1.78 mm | 0 m/s | 18 W/m² | - |
| 1777994182 | 1.11° C | 96% | 1015.2 hPa | 1.78 mm | 0 m/s | 18 W/m² | - |
* Rain latest hour (hover to see other rain measurements)
** Current wind speed in m/s (hover to see current wind gust speed)